Content
SEND FEEDBACK

Daily
Averages
Monthly
Summary
United States of America

BELLE ISLE, FLORIDA


Home > North America > United States > Florida
Elevation: 91 feet     Latitude: 28 26N     Longitude: 081 20W

WEATHER
 
SELECT A DAY
Number of Records: 201,708;   Date Range: 1/1/95 - 12/20/14
 
SHARE

PRINT THIS DATA

[ ← Previous Day ]
WEATHER ALMANAC - JANUARY 23, 2013
[ Next Day → ]
[ °C ]   °F
Weather ElementAverageHighLow
Temperature55.7 °F70 °F (1:53 pm)44.1 °F (6:53 am)
Dewpoint38 °F44.1 °F (5:53 pm)32 °F (8:53 am)
Humidity55.7 %83 % (1:53 am)27 % (3:53 pm)
Barometer30.33 in30.38 in (9:53 am)30.29 in (1:53 am)
Wind Speed6 mph9.2 mph (4:53 am)
Weather ElementAverage
Visibility10 mi
Wind DirectionS (182.6 °)

Weather ElementTotal
Precipitation---
Heating Degree Days8 (Base 65)
Growing Degree Days7.1 (Base 50)
Averaged from 23 records on January 23, 2013
WEATHER CONDITIONS BREAKOUT
WIND DIRECTION BREAKOUT
WEATHER BY HOUR - JANUARY 23, 2013
[ °C ]   °F
Local TimeTemperatureDewpointHumidityBarometerVisibilityWind DirectionWind SpeedGust SpeedPrecipitationEventsConditions
1:53 AM48.0 °F43.0 °F83 %30.29 in10.0 miNorth (350°)6.9 mphMostly Cloudy
2:53 AM46.9 °F41.0 °F80 %30.30 in10.0 miNorth (350°)4.6 mphMostly Cloudy
3:53 AM45.0 °F39.9 °F82 %30.31 in10.0 miNorth (360°)6.9 mphScattered Clouds
4:53 AM46.9 °F37.0 °F68 %30.31 in10.0 miNorth (350°)9.2 mphScattered Clouds
5:53 AM45.0 °F35.1 °F68 %30.33 in10.0 miNorth (350°)8.1 mphPartly Cloudy
6:53 AM44.1 °F34.0 °F68 %30.35 in10.0 miNorth (360°)6.9 mphPartly Cloudy
7:53 AM46.0 °F34.0 °F63 %30.36 in10.0 miNorth (360°)9.2 mphPartly Cloudy
8:53 AM54.0 °F32.0 °F43 %30.37 in10.0 miNorth (360°)9.2 mphPartly Cloudy
9:53 AM59.0 °F37.0 °F44 %30.38 in10.0 miNNE (20°)9.2 mphPartly Cloudy
10:53 AM64.0 °F35.1 °F34 %30.37 in10.0 miNNE (30°)6.9 mphPartly Cloudy
11:53 AM66.2 °F35.6 °F32 %30.35 in10.0 miNNW (330°)5.8 mphPartly Cloudy
12:53 PM66.9 °F34.0 °F30 %30.33 in10.0 miVariable4.6 mphClear
1:53 PM70.0 °F35.1 °F28 %30.30 in10.0 miNNE (20°)8.1 mphClear
2:53 PM69.1 °F35.1 °F29 %30.29 in10.0 miNNE (20°)3.5 mphClear
3:53 PM69.1 °F34.0 °F27 %30.29 in10.0 miNNW (330°)8.1 mphClear
4:53 PM68.0 °F33.1 °F27 %30.30 in10.0 miNNW (330°)5.8 mphClear
5:53 PM60.1 °F44.1 °F55 %30.31 in10.0 miENE (70°)9.2 mphPartly Cloudy
6:53 PM57.0 °F44.1 °F62 %30.33 in10.0 miENE (70°)6.9 mphClear
7:53 PM55.0 °F43.0 °F64 %30.33 in10.0 miEast (80°)3.5 mphClear
8:53 PM53.1 °F43.0 °F69 %30.33 in10.0 miENE (60°)4.6 mphClear
9:53 PM53.1 °F42.1 °F66 %30.33 in10.0 miCalmClear
10:53 PM48.9 °F42.1 °F77 %30.33 in10.0 miCalmClear
11:53 PM46.0 °F41.0 °F83 %30.33 in10.0 miCalmClear
Hourly data recorded from KMCO, located miles away from Belle Isle, Florida







STORIES FROM OUR PARTNERS